Lexington Weather

Lexington, Massachusetts, USA

25°F
2/26/2021 7:45am 
  • Lexington Conditions: Clear
  • Temperature: 25.0°F / -3.9°CWarmer 0.2°F than last hour.
  • Dew Point: 15.6°FIncreased 0.5°Fsince last hour.
  • Relative Humidity: 67%Increased 1.0% since last hour.
  • Wind: Wind from W W 2 mph, 10-min avg: Calm, gust: 3 mph
  • Barometer: 30.36 inRising 0.04  inHg/hr Rising Slowly
  • Visibility: 10 miles
  • Snow Today: 0.0 in
  •   

Regional Weather Roundup
for Boston / Norton, MA

        
000
ASUS41 KBOX 260204
RWRBOX

REGIONAL WEATHER ROUNDUP
NATIONAL WEATHER SERVICE BOSTON/NORTON MA
900 PM EST THU FEB 25 2021

NOTE:  "FAIR" INDICATES FEW OR NO CLOUDS BELOW 12,000 FEET WITH NO 
SIGNIFICANT WEATHER AND/OR OBSTRUCTIONS TO VISIBILITY.

MAZALL-260300-
EASTERN MASSACHUSETTS
  
CITY           SKY/WX    TMP DP  RH WIND       PRES   REMARKS
BOSTON         CLEAR     36  15  42 W12       30.15R WCI  28          
BEVERLY        CLEAR     36  17  46 W7        30.13R WCI  30          
LAWRENCE       CLEAR     34  17  50 W5        30.15R WCI  30          
BEDFORD        CLEAR     35  17  47 W7        30.13R WCI  29          
BLUE HILL        N/A     32  16  51 W12G21    30.11R WCI  23          
NORWOOD        CLEAR     36  16  44 W6        30.15R WCI  31          
MARSHFIELD     CLEAR     39  16  38 VRB7G14   30.14R                  
PLYMOUTH       CLEAR     36  16  44 W12       30.13R WCI  28          
TAUNTON        CLEAR     38  12  34 W8G17     30.15R                  
NEW BEDFORD    CLEAR     39  11  31 W14G23    30.15R WCI  31          
$$

MAZALL-260300-
CAPE COD AND THE ISLANDS
  
CITY           SKY/WX    TMP DP  RH WIND       PRES   REMARKS
FALMOUTH       CLEAR     37  12  35 NW20      30.13R WCI  27          
HYANNIS        CLEAR     39  15  37 VRB7      30.12R                  
CHATHAM        CLEAR     39  17  41 W7        30.14R                  
PROVINCETOWN   CLEAR     38  22  52 W18G24    30.14R WCI  28          
NANTUCKET      CLEAR     38  20  48 NW13      30.14R WCI  30          
MARTHAS VNYRD  CLEAR     40  17  39 NW12G20   30.15R                  
$$
 
MAZALL-260300-
CENTRAL AND WESTERN MASSACHUSETTS
  
CITY           SKY/WX    TMP DP  RH WIND       PRES   REMARKS
WORCESTER      CLEAR     32  12  43 W15G23    30.12R WCI  22          
FITCHBURG      CLEAR     33  16  49 W12       30.15R WCI  24          
ORANGE         CLEAR     32  12  43 W13G23    30.16R WCI  22          
SPRINGFIELD    CLEAR     33   9  37 NW12      30.19R WCI  24          
WESTFIELD      CLEAR     33  15  47 NW9       30.20R WCI  25          
NORTH ADAMS    CLEAR     30  11  45 W12G24    30.20R WCI  20          
PITTSFIELD     CLEAR     27  12  53 W13       30.16R WCI  16          
$$
 
RIZALL-260300-
RHODE ISLAND
  
CITY           SKY/WX    TMP DP  RH WIND       PRES   REMARKS
PROVIDENCE     CLEAR     37  13  37 W9        30.17R WCI  30          
NEWPORT        CLEAR     37  19  48 NW9       30.17R WCI  30          
BLOCK ISLAND   CLEAR     38  20  48 NW7       30.19R                  
SMITHFIELD     CLEAR     34  11  38 W13G20    30.15R WCI  25          
WESTERLY       CLEAR     36  13  38 VRB3      30.19R                  
$$
 
CTZALL-260300-
CONNECTICUT
  
CITY           SKY/WX    TMP DP  RH WIND       PRES   REMARKS
BRADLEY INTL   CLEAR     34  15  46 N7        30.20R WCI  28          
HARTFORD       CLEAR     36  15  42 N7        30.21R WCI  30          
BRIDGEPORT     CLEAR     39  15  37 W7        30.22R                  
DANBURY        CLEAR     39  11  31 NW3       30.22R                  
GROTON         CLEAR     38  15  39 NW7       30.19R                  
NEW HAVEN      CLEAR     40  20  44 CALM      30.21R                  
CHESTER        FAIR      36  12  38 CALM      30.19R                  
MERIDEN        CLEAR     32  19  58 CALM      30.20R                  
WILLIMANTIC    CLEAR     36  14  40 NW10      30.19R WCI  28          
OXFORD         CLEAR     36  11  35 W6        30.20R WCI  31          
$$

MEZ002-015-021-024-NHZ003-005-008-011-012-014-VTZ005-008-260300-
NORTHERN NEW ENGLAND
  
CITY           SKY/WX    TMP DP  RH WIND       PRES   REMARKS
PORTLAND ME    CLEAR     28   9  44 NW12      30.11R WCI  18          
BANGOR ME      PTCLDY    22   8  55 NW13G22   30.05R WCI  10          
CONCORD NH     CLEAR     30  12  47 NW13      30.13R WCI  20          
MANCHESTER NH  CLEAR     35  14  42 NW7       30.12R WCI  29          
NASHUA NH      CLEAR     34  17  50 W6        30.14R WCI  29          
PORTSMOUTH NH  CLEAR     33   8  35 W10       30.11R WCI  25          
JAFFREY NH     CLEAR     30  14  51 W10       30.10R WCI  21          
KEENE NH       CLEAR     32  16  51 W7        30.15R WCI  26          
BURLINGTON VT  CLOUDY    23   4  44 NE5       30.20R WCI  17          
MT. WASHINGTON PTCLDY    -6  -8  92 W77G86      N/A  WCI -45          
$$

NYZ052-076-260300-
EASTERN NEW YORK
  
CITY           SKY/WX    TMP DP  RH WIND       PRES   REMARKS
ALBANY         CLEAR     29  13  51 W3        30.23R                  
NEW YORK CITY  CLEAR     44  15  31 NW10      30.22R                  
$$
 
ANZALL-260300-
MARINE OBSERVATIONS
  
STATION/POSITION TIME  TEMP    WIND        PRES    VSBY  WAVE
                       AIR SEA DIR/SP/G                  HT/PER
                 (UTC) (F)     (DEG/KT/KT) (MB)    (MI)  (FT/S)
BOSTON BUOY      0150   39 39  280/ 16/ 21 1020.8R
BUZZARDS BAY     0100          310/  9/ 10 1021.9R
NANTUCKET SOUND  0150      37  300/ 17/ 21   N/A           2/ 3
MASS BAY-STELLWA 0104   40     290/ 17/ 21 1018.3R  1 7/8  3/ 4
ISLE OF SHOALS   0100   37     300/ 21/ 25 1018.5R
S OF BLOCK IS    0126      40                N/A           4/ 8
$$

......................KEY.........................
  SKY/WX - SKY CONDITION/PRESENT WEATHER
  TMP    - TEMPERATURE IN FAHRENHEIT
  DWPT   - DEWPOINT IN FAHRENHEIT
  RH     - RELATIVE HUMIDITY IN PERCENT
  WIND   - DIRECTION AND SPEED IN MPH
  PRES   - MEAN SEA LEVEL PRESSURE IN INCHES OF HG
  WCI    - WIND CHILL INDEX
  VSB    - VISIBILITY IN MILES
  HX     - HEAT INDEX
  TC     - TEMPERATURE IN CELSIUS
  VRB    - VARIABLE WIND DIRECTION
  N/A    - NOT AVAILABLE
  
      

Other recent Regional Weather Roundups

Fri Feb 26, 7:04am

Fri Feb 26, 6:04am

Fri Feb 26, 5:04am

Fri Feb 26, 4:04am

Fri Feb 26, 3:04am

Fri Feb 26, 2:04am

Fri Feb 26, 1:04am

Fri Feb 26, 12:04am

Thu Feb 25, 11:04pm

Thu Feb 25, 10:04pm

Thu Feb 25, 8:05pm

Thu Feb 25, 7:05pm

Thu Feb 25, 6:04pm

Thu Feb 25, 5:04pm

Thu Feb 25, 4:05pm

Thu Feb 25, 3:05pm

Thu Feb 25, 2:04pm

Thu Feb 25, 1:04pm

Thu Feb 25, 12:05pm

Thu Feb 25, 11:04am

Thu Feb 25, 10:04am

Thu Feb 25, 9:04am

Thu Feb 25, 8:04am

Thu Feb 25, 7:04am

Thu Feb 25, 6:04am

Thu Feb 25, 5:04am

Thu Feb 25, 4:04am

Thu Feb 25, 3:04am

Thu Feb 25, 2:04am

Thu Feb 25, 1:04am

Thu Feb 25, 12:04am

Wed Feb 24, 11:04pm

Wed Feb 24, 10:05pm

Wed Feb 24, 9:04pm

Wed Feb 24, 8:04pm

Wed Feb 24, 7:04pm

Wed Feb 24, 6:04pm

Wed Feb 24, 5:04pm

Wed Feb 24, 4:04pm

Wed Feb 24, 3:04pm

Wed Feb 24, 2:05pm

Wed Feb 24, 1:05pm

Wed Feb 24, 12:05pm

Wed Feb 24, 11:04am

Wed Feb 24, 10:04am

Wed Feb 24, 9:04am

Wed Feb 24, 8:04am

Wed Feb 24, 7:04am

Wed Feb 24, 6:04am

Wed Feb 24, 5:04am

Wed Feb 24, 4:04am

Wed Feb 24, 3:04am

Wed Feb 24, 2:04am

Wed Feb 24, 1:04am

Wed Feb 24, 12:04am

Tue Feb 23, 11:04pm

Tue Feb 23, 10:04pm

Tue Feb 23, 9:04pm

Tue Feb 23, 8:05pm

Tue Feb 23, 7:04pm

Tue Feb 23, 6:04pm

Tue Feb 23, 5:04pm

Tue Feb 23, 4:05pm

Tue Feb 23, 3:04pm

Tue Feb 23, 2:04pm

Tue Feb 23, 1:04pm

Tue Feb 23, 12:04pm

Tue Feb 23, 11:04am

Tue Feb 23, 10:04am

Tue Feb 23, 9:04am

Tue Feb 23, 7:04am

Tue Feb 23, 6:04am

Tue Feb 23, 5:04am

Tue Feb 23, 4:04am

Tue Feb 23, 3:04am

Tue Feb 23, 2:04am

Tue Feb 23, 1:04am

Tue Feb 23, 12:04am

Mon Feb 22, 11:04pm

Mon Feb 22, 10:04pm

Mon Feb 22, 9:04pm

Mon Feb 22, 8:04pm

Mon Feb 22, 7:04pm

Mon Feb 22, 6:04pm

Mon Feb 22, 5:04pm

Mon Feb 22, 4:05pm

Mon Feb 22, 3:04pm

Mon Feb 22, 2:05pm

Mon Feb 22, 1:04pm

Mon Feb 22, 12:05pm

Mon Feb 22, 11:04am

Mon Feb 22, 10:04am

Mon Feb 22, 9:05am

Mon Feb 22, 8:04am

Mon Feb 22, 7:04am

Mon Feb 22, 6:04am

Mon Feb 22, 5:04am

Mon Feb 22, 4:04am

Mon Feb 22, 3:04am

Mon Feb 22, 2:04am

Mon Feb 22, 1:04am

Mon Feb 22, 12:04am

Sun Feb 21, 11:04pm

Sun Feb 21, 10:05pm

Sun Feb 21, 9:04pm

Sun Feb 21, 8:04pm

Sun Feb 21, 7:04pm

Sun Feb 21, 6:04pm

Sun Feb 21, 5:04pm

Sun Feb 21, 4:05pm

Sun Feb 21, 3:04pm

Sun Feb 21, 2:04pm

Sun Feb 21, 1:05pm

Sun Feb 21, 12:05pm

Sun Feb 21, 11:04am

Sun Feb 21, 10:05am

Sun Feb 21, 9:04am

Sun Feb 21, 8:04am

Sun Feb 21, 7:04am

Sun Feb 21, 6:04am

Sun Feb 21, 5:04am

Sun Feb 21, 4:04am

Sun Feb 21, 3:04am

Sun Feb 21, 2:04am

Sun Feb 21, 1:04am

Sun Feb 21, 12:04am

Sat Feb 20, 11:04pm

Sat Feb 20, 10:04pm

Sat Feb 20, 9:04pm

Sat Feb 20, 8:04pm

Sat Feb 20, 7:04pm

Sat Feb 20, 6:04pm

Sat Feb 20, 5:04pm

Sat Feb 20, 4:05pm

Sat Feb 20, 3:04pm

Sat Feb 20, 2:04pm

Sat Feb 20, 1:05pm

Sat Feb 20, 12:05pm

Sat Feb 20, 11:04am

Sat Feb 20, 10:05am

Sat Feb 20, 9:04am

Sat Feb 20, 8:04am

Sat Feb 20, 7:04am

Sat Feb 20, 6:04am

Sat Feb 20, 5:04am

Sat Feb 20, 4:04am

Sat Feb 20, 3:04am

Sat Feb 20, 2:04am

Sat Feb 20, 1:04am

Sat Feb 20, 12:04am

Fri Feb 19, 11:04pm

Fri Feb 19, 10:05pm

Fri Feb 19, 9:04pm

Fri Feb 19, 8:04pm

Fri Feb 19, 7:04pm

Fri Feb 19, 6:04pm

Fri Feb 19, 5:04pm

Fri Feb 19, 4:05pm

Fri Feb 19, 3:04pm

Fri Feb 19, 2:04pm

Fri Feb 19, 1:05pm

Fri Feb 19, 12:05pm

Fri Feb 19, 11:04am

Fri Feb 19, 10:04am

Fri Feb 19, 9:04am

Fri Feb 19, 8:04am

Meta data:

ID: 309032d4-ce9f-4d93-b5f3-3de96c3d3f43
Link: https://api.weather.gov/products/309032d4-ce9f-4d93-b5f3-3de96c3d3f43